• In Deutschland
  • Länderverzeichnis
  • Für 7 Tage
  • Wassertemperatur
  • Satellitenkarten
  • Wetterkarte
  • Widgets
  • user-avatar
    Anmelden

    Stündliche Wetter Hof

    Heute, 24 September, Montag

    Zeit Temperatur Niederschläge Wind Luftdruck Luftfeuchtigkeit
    00:00 +6°C° 0.1 mm 5 m/S 717 mmHg 92%
    01:00 +6°C° 0.1 mm 5 m/S 719 mmHg 91%
    02:00 +5°C° 0 mm 4 m/S 720 mmHg 92%
    03:00 +5°C° 0 mm 4 m/S 721 mmHg 92%
    04:00 +5°C° 0 mm 4 m/S 722 mmHg 93%
    05:00 +4°C° 0 mm 4 m/S 723 mmHg 92%
    06:00 +3°C° 0 mm 5 m/S 723 mmHg 92%
    07:00 +3°C° 0 mm 5 m/S 724 mmHg 92%
    08:00 +5°C° 0 mm 5 m/S 725 mmHg 85%
    09:00 +5°C° 0 mm 6 m/S 725 mmHg 78%
    10:00 +7°C° 0 mm 6 m/S 726 mmHg 71%
    11:00 +8°C° 0.1 mm 6 m/S 726 mmHg 65%
    12:00 +9°C° 0.1 mm 6 m/S 726 mmHg 59%
    13:00 +10°C° 0.1 mm 7 m/S 727 mmHg 53%
    14:00 +10°C° 0.1 mm 6 m/S 727 mmHg 55%
    15:00 +9°C° 0.1 mm 6 m/S 727 mmHg 58%
    16:00 +9°C° 0.1 mm 6 m/S 727 mmHg 60%
    17:00 +8°C° 0 mm 5 m/S 727 mmHg 66%
    18:00 +6°C° 0 mm 4 m/S 727 mmHg 73%
    19:00 +5°C° 0 mm 3 m/S 727 mmHg 80%
    20:00 +4°C° 0 mm 3 m/S 728 mmHg 83%
    21:00 +5°C° 0 mm 2 m/S 728 mmHg 85%
    22:00 +4°C° 0 mm 2 m/S 729 mmHg 88%
    23:00 +4°C° 0 mm 2 m/S 729 mmHg 90%

    Morgen, 25 September, Dienstag

    Zeit Temperatur Niederschläge Wind Luftdruck Luftfeuchtigkeit
    00:00 +4°C° 0 mm 2 m/S 729 mmHg 91%
    01:00 +3°C° 0 mm 2 m/S 730 mmHg 93%
    02:00 +3°C° 0 mm 2 m/S 730 mmHg 94%
    03:00 +3°C° 0 mm 1 m/S 730 mmHg 94%
    04:00 +3°C° 0 mm 1 m/S 730 mmHg 95%
    05:00 +3°C° 0 mm 1 m/S 730 mmHg 94%
    06:00 +3°C° 0 mm 1 m/S 731 mmHg 93%
    07:00 +4°C° 0 mm 1 m/S 731 mmHg 92%
    08:00 +6°C° 0 mm 1 m/S 732 mmHg 81%
    09:00 +7°C° 0 mm 2 m/S 732 mmHg 69%
    10:00 +9°C° 0 mm 2 m/S 733 mmHg 58%
    11:00 +9°C° 0 mm 2 m/S 732 mmHg 55%
    12:00 +10°C° 0 mm 2 m/S 732 mmHg 52%
    13:00 +10°C° 0 mm 2 m/S 732 mmHg 49%
    14:00 +10°C° 0 mm 2 m/S 732 mmHg 49%
    15:00 +10°C° 0 mm 2 m/S 732 mmHg 50%
    16:00 +10°C° 0 mm 2 m/S 732 mmHg 50%
    17:00 +8°C° 0 mm 2 m/S 732 mmHg 58%
    18:00 +8°C° 0 mm 1 m/S 731 mmHg 65%
    19:00 +6°C° 0 mm 1 m/S 731 mmHg 73%
    20:00 +5°C° 0 mm 1 m/S 731 mmHg 74%
    21:00 +5°C° 0 mm 1 m/S 732 mmHg 76%
    22:00 +4°C° 0 mm 1 m/S 732 mmHg 77%
    23:00 +4°C° 0 mm 1 m/S 732 mmHg 77%

    übermorgen, 26 September, Mittwoch

    Zeit Temperatur Niederschläge Wind Luftdruck Luftfeuchtigkeit
    00:00 +4°C° 0 mm 1 m/S 731 mmHg 77%
    01:00 +4°C° 0 mm 1 m/S 731 mmHg 77%
    02:00 +3°C° 0 mm 1 m/S 731 mmHg 77%
    03:00 +3°C° 0 mm 1 m/S 731 mmHg 77%
    04:00 +3°C° 0 mm 1 m/S 730 mmHg 77%
    05:00 +3°C° 0 mm 1 m/S 730 mmHg 75%
    06:00 +4°C° 0 mm 1 m/S 730 mmHg 73%
    07:00 +4°C° 0 mm 1 m/S 730 mmHg 71%
    08:00 +6°C° 0 mm 2 m/S 730 mmHg 62%
    09:00 +8°C° 0 mm 2 m/S 730 mmHg 53%
    10:00 +12°C° 0 mm 2 m/S 730 mmHg 44%
    11:00 +13°C° 0 mm 2 m/S 730 mmHg 41%
    12:00 +14°C° 0 mm 2 m/S 730 mmHg 38%
    13:00 +16°C° 0 mm 2 m/S 729 mmHg 34%
    14:00 +16°C° 0 mm 2 m/S 729 mmHg 37%
    15:00 +16°C° 0 mm 2 m/S 728 mmHg 39%
    16:00 +16°C° 0 mm 2 m/S 728 mmHg 41%
    17:00 +14°C° 0 mm 2 m/S 728 mmHg 47%
    18:00 +10°C° 0 mm 2 m/S 727 mmHg 53%
    19:00 +9°C° 0 mm 1 m/S 727 mmHg 58%
    20:00 +9°C° 0 mm 1 m/S 727 mmHg 59%
    21:00 +9°C° 0 mm 1 m/S 727 mmHg 59%
    22:00 +8°C° 0 mm 1 m/S 728 mmHg 59%
    23:00 +8°C° 0 mm 1 m/S 727 mmHg 60%

    27 September, Donnerstag

    Zeit Temperatur Niederschläge Wind Luftdruck Luftfeuchtigkeit
    00:00 +8°C° 0 mm 1 m/S 727 mmHg 60%
    01:00 +7°C° 0 mm 2 m/S 727 mmHg 61%
    02:00 +8°C° 0 mm 1 m/S 727 mmHg 62%
    03:00 +7°C° 0 mm 1 m/S 727 mmHg 63%
    04:00 +7°C° 0 mm 1 m/S 726 mmHg 64%
    05:00 +8°C° 0 mm 1 m/S 726 mmHg 65%
    06:00 +7°C° 0 mm 2 m/S 726 mmHg 65%
    07:00 +7°C° 0 mm 2 m/S 726 mmHg 66%
    08:00 +10°C° 0 mm 2 m/S 726 mmHg 60%
    09:00 +13°C° 0 mm 2 m/S 726 mmHg 54%
    10:00 +16°C° 0 mm 2 m/S 726 mmHg 47%
    11:00 +17°C° 0 mm 2 m/S 726 mmHg 45%
    12:00 +19°C° 0 mm 2 m/S 726 mmHg 42%
    13:00 +20°C° 0 mm 2 m/S 726 mmHg 39%
    14:00 +20°C° 0 mm 2 m/S 725 mmHg 41%
    15:00 +20°C° 0 mm 2 m/S 724 mmHg 43%
    16:00 +20°C° 0 mm 2 m/S 723 mmHg 45%
    17:00 +17°C° 0 mm 2 m/S 723 mmHg 51%
    18:00 +15°C° 0 mm 2 m/S 722 mmHg 57%
    19:00 +12°C° 0 mm 1 m/S 722 mmHg 63%
    20:00 +12°C° 0 mm 1 m/S 722 mmHg 65%
    21:00 +11°C° 0 mm 1 m/S 722 mmHg 66%
    22:00 +9°C° 0 mm 2 m/S 722 mmHg 67%
    23:00 +10°C° 0 mm 1 m/S 722 mmHg 69%

    28 September, Freitag

    Zeit Temperatur Niederschläge Wind Luftdruck Luftfeuchtigkeit
    00:00 +10°C° 0 mm 1 m/S 721 mmHg 70%
    01:00 +9°C° 0 mm 1 m/S 721 mmHg 72%
    02:00 +9°C° 0 mm 1 m/S 721 mmHg 74%
    03:00 +8°C° 0 mm 1 m/S 721 mmHg 75%
    04:00 +8°C° 0 mm 1 m/S 721 mmHg 77%
    05:00 +8°C° 0 mm 1 m/S 721 mmHg 77%
    06:00 +8°C° 0 mm 0 m/S 721 mmHg 77%
    07:00 +8°C° 0 mm 0 m/S 721 mmHg 78%
    08:00 +11°C° 0 mm 1 m/S 722 mmHg 75%
    09:00 +13°C° 0 mm 1 m/S 722 mmHg 73%
    10:00 +14°C° 0 mm 1 m/S 722 mmHg 71%
    11:00 +14°C° 0.1 mm 2 m/S 722 mmHg 73%
    12:00 +14°C° 0.1 mm 2 m/S 722 mmHg 76%
    13:00 +14°C° 0.1 mm 2 m/S 722 mmHg 79%
    14:00 +13°C° 0.1 mm 2 m/S 722 mmHg 81%
    15:00 +12°C° 0.1 mm 3 m/S 721 mmHg 83%
    16:00 +11°C° 0.1 mm 3 m/S 721 mmHg 86%
    17:00 +11°C° 0.3 mm 3 m/S 721 mmHg 87%
    18:00 +10°C° 0.3 mm 3 m/S 722 mmHg 89%
    19:00 +9°C° 0.3 mm 3 m/S 722 mmHg 90%
    20:00 +9°C° 0.3 mm 3 m/S 722 mmHg 89%
    21:00 +9°C° 0.3 mm 3 m/S 723 mmHg 88%
    22:00 +9°C° 0.3 mm 3 m/S 723 mmHg 87%
    23:00 +8°C° 0.1 mm 3 m/S 723 mmHg 87%

    29 September, Samstag

    Zeit Temperatur Niederschläge Wind Luftdruck Luftfeuchtigkeit
    00:00 +8°C° 0.1 mm 3 m/S 723 mmHg 86%
    01:00 +8°C° 0.1 mm 3 m/S 723 mmHg 86%
    02:00 +7°C° 0 mm 3 m/S 723 mmHg 86%
    03:00 +7°C° 0 mm 3 m/S 723 mmHg 86%
    04:00 +7°C° 0 mm 3 m/S 724 mmHg 87%
    05:00 +7°C° 0 mm 3 m/S 724 mmHg 87%
    06:00 +7°C° 0 mm 3 m/S 724 mmHg 87%
    07:00 +5°C° 0 mm 3 m/S 724 mmHg 87%
    08:00 +8°C° 0 mm 3 m/S 724 mmHg 81%
    09:00 +8°C° 0 mm 4 m/S 725 mmHg 75%
    10:00 +11°C° 0 mm 4 m/S 725 mmHg 69%
    11:00 +12°C° 0 mm 4 m/S 725 mmHg 65%
    12:00 +13°C° 0 mm 4 m/S 724 mmHg 61%
    13:00 +14°C° 0 mm 4 m/S 724 mmHg 56%
    14:00 +14°C° 0 mm 4 m/S 724 mmHg 57%
    15:00 +14°C° 0 mm 4 m/S 723 mmHg 57%
    16:00 +14°C° 0 mm 4 m/S 723 mmHg 58%
    17:00 +12°C° 0 mm 3 m/S 723 mmHg 64%
    18:00 +10°C° 0 mm 3 m/S 722 mmHg 70%
    19:00 +8°C° 0 mm 2 m/S 722 mmHg 76%
    20:00 +8°C° 0 mm 2 m/S 722 mmHg 77%
    21:00 +8°C° 0 mm 2 m/S 722 mmHg 79%
    22:00 +7°C° 0 mm 2 m/S 722 mmHg 81%
    23:00 +7°C° 0 mm 2 m/S 721 mmHg 82%
    Mehr zeigen